Regional Weather Roundup
Issued by NWS

Home | Current Version | Previous Version | Text Only | Print | Product List | Glossary On
Versions: 1 2 3 4 5 6 7 8 9 10 11 12 13 14 15 16 17 18 19 20 21 22 23 24 25 26 27 28 29 30 31 32 33 34 35 36 37 38 39 40 41 42 43 44 45 46 47 48 49 50
000
ASUS45 KABQ 221001
RWRNM
WEATHER ROUNDUP FOR NEW MEXICO
NATIONAL WEATHER SERVICE ALBUQUERQUE NM
400 AM MDT TUE JUL 22 2014

NOTE: "FAIR" MEANS FEW OR NO CLOUDS BELOW 12,000 FEET AGL WITH NO
       SIGNIFICANT WEATHER OR OBSTRUCTIONS TO VISION.

      THIS PRODUCT IS RELEASED AS TWO VERSIONS.  ONE VERSION NEAR
      THE TOP OF THE HOUR CONTAINING PRELIMINARY DATA FROM ALBUQUERQUE
      AND OTHER STATIONS.  A FINAL VERSION WITH ADDITIONAL DATA IS
      ISSUED ABOUT 10 MINUTES AFTER THE HOUR.

NMZ501-503-504-510>518-221100-
NORTHWEST PLATEAU/NORTHCENTRAL MOUNTAINS

CITY           SKY/WX    TMP DP  RH WIND       PRES   REMARKS
FARMINGTON     CLEAR     63  35  35 NE5       30.25R
LOS ALAMOS     MOCLDY    68  47  46 SE5       30.40R
SANTA FE       MOCLDY    68  51  54 SE7       30.33R
TAOS           CLEAR     54  43  66 N6        30.41R
ANGEL FIRE     FAIR      45  44  94 CALM      30.52R

$$
NMZ402-403-502-505>509-221100-
WESTCENTRAL MOUNTAINS/SOUTHWEST MOUNTAINS

CITY           SKY/WX    TMP DP  RH WIND       PRES   REMARKS
GALLUP         MOCLDY    64  41  42 CALM      30.33F
GRANTS         CLOUDY    65  47  51 W3        30.34S

$$
NMZ407-409-411-412-221100-
SOUTHERN DESERTS

CITY           SKY/WX    TMP DP  RH WIND       PRES   REMARKS
LORDSBURG      FAIR      75  46  35 NE5       30.13F
DEMING         CLEAR     71  50  47 SW7       30.13S
LAS CRUCES     PTCLDY    76  50  40 W3        30.15S
HOLLOMAN AFB   CLEAR     75  51  43 NW7       30.11R
T OR C         PTCLDY    78  49  35 NW7       30.16R

$$
NMZ519>523-221100-
CENTRAL VALLEYS/CENTRAL HIGHLANDS

CITY           SKY/WX    TMP DP  RH WIND       PRES   REMARKS
ALBUQUERQUE    PTCLDY    79  48  33 NE6       30.23R
DOUBLE EAGLE   MOCLDY    71  52  49 CALM      30.28R
MORIARTY ARPT  FAIR      61  51  69 CALM      30.34R
CLINES CORNERS MOCLDY    63  52  67 E8        30.38R
BELEN          FAIR      73  50  43 S7        30.21S
SOCORRO        FAIR      76  47  35 CALM      30.18F

$$
NMZ524>526-539-540-221100-
SOUTHCENTRAL MOUNTAINS

CITY           SKY/WX    TMP DP  RH WIND       PRES   REMARKS
RUIDOSO        NOT AVBL

$$
NMZ527>531-221100-
NORTHEAST HIGHLANDS/NORTHEAST PLAINS

CITY           SKY/WX    TMP DP  RH WIND       PRES   REMARKS
LAS VEGAS      CLOUDY    61  55  81 W6        30.38S
RATON          CLEAR     57  51  80 NW5       30.33R
CLAYTON        PTCLDY    66  58  75 SW12      30.22F

$$
NMZ532>537-221100-
EASTCENTRAL PLAINS

CITY           SKY/WX    TMP DP  RH WIND       PRES   REMARKS
TUCUMCARI      PTCLDY    69  62  78 W7        30.14F
CANNON AFB     NOT AVBL
CLOVIS AIRPORT NOT AVBL

$$
NMZ028-029-538-221100-
SOUTHEAST PLAINS

CITY           SKY/WX    TMP DP  RH WIND       PRES   REMARKS
ROSWELL        CLEAR     76  62  62 E9        30.13R
ARTESIA        PTCLDY    75  63  64 NE9       30.12R
CARLSBAD       PTCLDY    81  64  56 SE12      30.07R
HOBBS          MOCLDY    75  63  64 SE5       30.15R


$$



USA.gov is the U.S. government's official web portal to all federal, state and local government web resources and services.